Location: ???? ??
(36.0534°N, 43.5630°E)
Time: 12:32:07
(UTC+00:00)

GPS 2-05 Rocket1 - Pass Details

Date: 18 September 2019
Orbit: 312 x 338 km, 35.6° (Epoch: 16 October)

Event Time Altitude Azimuth Distance (km) Brightness Sun altitude
Rises 16:10:21 0° 275° (W) 2,044 8.2 -13.1°
Reaches altitude 10° 16:12:28 10° 264° (W) 1,207 6.3 -13.5°
Maximum altitude 16:14:55 31° 199° (SSW) 575 3.5 -14.0°
Enters shadow 16:15:55 23° 157° (SSE) 716 3.6 -14.2°
